IRIDIUM 42 [-]

Last updated on Wed Jun 28 2023 00:03:02 GMT+0000 (Coordinated Universal Time)

1 25077U 97077A 23178.43015941 .00000530 00000+0 17903-3 0 9999 2 25077 86.3987 181.3389 0001895 75.5296 284.6110 14.35116515337786
UTC large
Height (km)
Speed (km/s)
/
Latitude / Longitude
Inclination (degrees)
Orbital Period (minutes)
Azimuth
Elevation
Range (km)
Doppler Factor

Next 0 passes for location: London (51.5072 / 0.1276)

Sorry there are no passes over London.